TimeEDT,TemperatureF,Dew PointF,Humidity,Sea Level PressureIn,VisibilityMPH,Wind Direction,Wind SpeedMPH,Gust SpeedMPH,PrecipitationIn,Events,Conditions,WindDirDegrees,DateUTC
12:53 AM,68.0,60.1,76,29.97,10.0,Calm,Calm,-,N/A,,Clear,0,2013-10-17 04:53:00
1:53 AM,66.9,61.0,81,29.96,10.0,ESE,3.5,-,N/A,,Clear,110,2013-10-17 05:53:00
2:53 AM,64.9,64.0,97,29.96,10.0,SSE,3.5,-,N/A,,Clear,150,2013-10-17 06:53:00
3:53 AM,64.0,63.0,96,29.95,10.0,Calm,Calm,-,N/A,,Clear,0,2013-10-17 07:53:00
4:53 AM,64.9,63.0,93,29.95,10.0,South,5.8,-,N/A,,Clear,170,2013-10-17 08:53:00
5:53 AM,64.9,63.0,93,29.95,10.0,Calm,Calm,-,N/A,,Clear,0,2013-10-17 09:53:00
6:53 AM,64.9,63.0,93,29.96,10.0,SW,4.6,-,N/A,,Clear,220,2013-10-17 10:53:00
7:53 AM,64.9,64.0,97,29.96,10.0,SSW,4.6,-,N/A,,Clear,210,2013-10-17 11:53:00
8:53 AM,66.0,64.0,93,29.97,10.0,SW,4.6,-,N/A,,Clear,220,2013-10-17 12:53:00
9:53 AM,71.1,64.0,78,29.98,10.0,SSW,5.8,-,N/A,,Clear,200,2013-10-17 13:53:00
10:53 AM,75.0,63.0,66,29.98,10.0,Variable,6.9,-,N/A,,Partly Cloudy,0,2013-10-17 14:53:00
11:53 AM,78.1,63.0,60,29.97,10.0,SSW,8.1,-,N/A,,Clear,210,2013-10-17 15:53:00
12:53 PM,79.0,62.1,56,29.95,10.0,Variable,6.9,-,N/A,,Scattered Clouds,0,2013-10-17 16:53:00
1:53 PM,79.0,63.0,58,29.92,10.0,SSW,3.5,-,N/A,,Partly Cloudy,210,2013-10-17 17:53:00
2:53 PM,80.1,62.1,54,29.89,10.0,Calm,Calm,-,N/A,,Mostly Cloudy,0,2013-10-17 18:53:00
3:53 PM,81.0,63.0,54,29.88,10.0,SSW,5.8,-,N/A,,Mostly Cloudy,210,2013-10-17 19:53:00
4:53 PM,80.1,62.1,54,29.88,10.0,West,3.5,-,N/A,,Overcast,280,2013-10-17 20:53:00
5:53 PM,77.0,64.0,64,29.89,10.0,NNW,6.9,-,N/A,,Overcast,340,2013-10-17 21:53:00
6:53 PM,75.0,64.9,71,29.89,10.0,NW,3.5,-,N/A,,Overcast,320,2013-10-17 22:53:00
7:53 PM,73.9,64.9,73,29.91,10.0,Calm,Calm,-,N/A,,Mostly Cloudy,0,2013-10-17 23:53:00
8:53 PM,73.9,64.9,73,29.91,10.0,Calm,Calm,-,N/A,,Overcast,0,2013-10-18 00:53:00
9:53 PM,73.0,66.0,79,29.92,10.0,NNW,3.5,-,N/A,,Overcast,340,2013-10-18 01:53:00
10:53 PM,72.0,66.9,84,29.93,10.0,West,3.5,-,N/A,,Overcast,270,2013-10-18 02:53:00
11:53 PM,70.0,68.0,93,29.91,10.0,Calm,Calm,-,0.00,,Overcast,0,2013-10-18 03:53:00